[[{"header":{"parameterUnit":"m.s-1","parameterCategory":1,"la1":30.2991,"la2":30.254,"lo1":-89.0895,"lo2":-89.0444,"dy":0.0017,"dx":0.0017,"nx":28,"ny":28,"refTime":"2024-10-06T09:00:00:Z","depth":0,"parameterNumber":2,"parameterNumberName":"U-component_of_WINDS"},"data":[0,0,0,0,0,0,0,0,0,0,0,0,0,0,0,0,0,0,0,0,0,0,0,0,0,0,0,0,0,0,0,0,0,0,0,0,0,0,0,0,0,0,0,0,0,0,0,0,0,0,0,0,0,0,0,0,0,0,-3.57,-3.57,0,-3.5735,-3.5735,-3.5736,-3.5679,-3.5677,-3.5675,-3.5673,-3.5709,-3.5712,-3.5715,0,0,0,0,0,0,0,0,0,0,0,0,0,-3.5585,-3.5587,-3.57,-3.57,-3.5701,-3.5735,-3.5735,-3.5736,-3.5679,-3.5677,-3.5674,-3.5672,-3.5708,-3.5712,-3.5715,0,0,0,0,0,0,0,0,0,0,0,0,0,-3.5629,-3.5588,-3.57,-3.5677,-3.5675,-3.5735,-3.5735,-3.5736,-3.5679,-3.5677,-3.5674,-3.5671,-3.5707,-3.5711,-3.5715,-3.58,0,0,-3.5728,-3.573,0,0,0,0,0,0,0,0,-3.5626,-3.5633,-3.568,-3.5678,-3.5676,-3.5699,-3.5708,-3.5757,-3.568,-3.5678,-3.5673,-3.5669,-3.5708,-3.5712,-3.5725,-3.5801,-3.5803,-3.5728,-3.5731,-3.5733,-3.5734,0,0,0,0,0,0,0,-3.5623,-3.5631,-3.5714,-3.568,-3.5678,-3.5665,-3.5668,-3.5717,-3.5709,-3.5678,-3.5674,-3.5679,-3.5707,-3.5721,-3.5726,-3.5804,-3.5728,-3.5732,-3.5735,-3.5736,-3.5952,-3.5955,0,0,0,0,0,0,-3.5623,-3.5629,-3.5713,-3.5715,-3.5644,-3.5669,-3.5672,-3.5695,-3.5708,-3.5708,-3.5681,-3.5676,-3.5716,-3.5721,-3.5727,-3.5828,-3.5733,-3.5737,-3.5739,-3.5949,-3.5953,-3.5956,0,0,0,0,0,0,-3.5621,-3.5631,-3.5711,-3.5671,-3.568,-3.5674,-3.57,-3.5697,-3.5712,-3.5711,-3.5709,-3.5697,-3.5713,-3.5721,-3.5782,-3.5828,-3.5739,-3.5742,-3.5945,-3.595,-3.5954,-3.603,0,0,0,0,0,0,-3.5618,-3.5631,-3.5663,-3.5672,-3.5682,-3.5766,-3.5703,-3.57,-3.5719,-3.5712,-3.5726,-3.5725,-3.5712,-3.5776,-3.5786,-3.5832,-3.5746,-3.5941,-3.5947,-3.5953,-3.6023,-3.6036,-3.6048,0,0,0,0,0,-3.5614,-3.5682,-3.5665,-3.5675,-3.5722,-3.5769,-3.5775,-3.5758,-3.5723,-3.5755,-3.5755,-3.5725,-3.5821,-3.5783,-3.5794,-3.5842,-3.5938,-3.5945,-3.5952,-3.6017,-3.6034,-3.6047,0,0,0,0,0,0,-3.5678,-3.5683,-3.5663,-3.5737,-3.5753,-3.5759,-3.5799,-3.5776,-3.5803,-3.5795,-3.5773,-3.5777,-3.5843,-3.5848,-3.5806,-3.5925,-3.5874,-3.5883,-3.5919,-3.5935,-3.5947,-3.5945,-3.5749,0,0,0,0,0,-3.5701,-3.5739,-3.574,-3.5805,-3.5814,-3.5806,-3.5825,-3.5811,-3.5827,-3.5834,-3.5838,-3.5855,-3.5889,-3.5912,-3.5943,-3.6023,-3.6026,-3.6061,-3.6073,-3.6084,-3.6093,-3.6137,-3.6153,-3.598,-3.598,-3.598,0,0,-3.5748,-3.5755,-3.5781,-3.5818,-3.5829,-3.5869,-3.5812,-3.5856,-3.5886,-3.584,-3.5899,-3.5903,-3.592,-3.5991,-3.6023,-3.5998,-3.6141,-3.6093,-3.6101,-3.6105,-3.6146,-3.6162,-3.6177,-3.5985,-3.5984,-3.5983,0,0,-3.5855,-3.5864,-3.5919,-3.5932,-3.5949,-3.5943,-3.5956,-3.5966,-3.5967,-3.6025,-3.5992,-3.6027,-3.6086,-3.61,-3.6115,-3.6228,-3.6202,-3.6239,-3.6304,-3.6347,-3.6361,-3.6373,-3.6415,-3.643,-3.6247,-3.6248,-3.6248,0,-3.5912,-3.5971,-3.5951,-3.5998,-3.6016,-3.5976,-3.6033,-3.6045,-3.6072,-3.6086,-3.6056,-3.613,-3.6139,-3.6214,-3.6242,-3.6254,-3.627,-3.6238,-3.636,-3.6372,-3.6383,-3.6423,-3.6439,-3.6252,-3.6252,-3.6251,-3.6251,0,-3.6041,-3.6082,-3.6124,-3.6152,-3.6174,-3.6225,-3.6214,-3.6239,-3.6222,-3.622,-3.628,-3.6289,-3.6322,-3.6339,-3.6323,-3.6412,-3.6396,-3.6364,-3.6312,-3.6405,-3.6442,-3.6457,-3.6259,-3.6257,-3.6256,-3.6254,0,0,-3.619,-3.6206,-3.6222,-3.6234,-3.625,-3.6282,-3.6331,-3.6364,-3.6387,-3.6406,-3.6448,-3.6499,-3.647,-3.6487,-3.6472,-3.651,-3.6601,-3.6474,-3.6474,-3.6499,-3.6701,-3.6726,-3.6744,-3.6583,-3.6586,-3.6588,-3.67,0,-3.6298,-3.6384,-3.6368,-3.6452,-3.6491,-3.6454,-3.6497,-3.6512,-3.6511,-3.6543,-3.6541,-3.6579,-3.6536,-3.6547,-3.6582,-3.6582,-3.6642,-3.6574,-3.6623,-3.6625,-3.6622,-3.6763,-3.679,-3.6896,-3.6714,-3.6717,-3.6718,0,-3.6436,-3.6461,-3.6549,-3.656,-3.6576,-3.6615,-3.6644,-3.6675,-3.6691,-3.6688,-3.6707,-3.6686,-3.6736,-3.6682,-3.6752,-3.6706,-3.6725,-3.6728,-3.6732,-3.6738,-3.6679,-3.6774,-3.6929,-3.6945,-3.6741,-3.6739,-3.6737,0,-3.6538,-3.6594,-3.6654,-3.6666,-3.6679,-3.6708,-3.6715,-3.6729,-3.6749,-3.6774,-3.6788,-3.6818,-3.6835,-3.686,-3.6847,-3.6809,-3.692,-3.6865,-3.6919,-3.692,-3.6946,-3.6945,-3.7107,-3.6955,-3.6955,-3.6954,-3.6954,0,-3.6661,-3.6717,-3.6701,-3.6738,-3.68,-3.678,-3.6842,-3.6844,-3.6857,-3.6894,-3.6864,-3.69,-3.688,-3.6915,-3.6905,-3.6965,-3.6973,-3.6972,-3.6969,-3.6976,-3.6977,-3.699,-3.6983,-3.6959,-3.6958,-3.6957,-3.6956,0,-3.6787,-3.6778,-3.6842,-3.6849,-3.6853,-3.6898,-3.6905,-3.694,-3.6936,-3.6984,-3.6994,-3.6988,-3.7028,-3.7017,-3.706,-3.7053,-3.713,-3.7117,-3.7125,-3.7122,-3.7178,-3.7173,-3.7356,-3.738,-3.721,-3.7212,-3.7213,0,-3.6867,-3.691,-3.6922,-3.6945,-3.6955,-3.6992,-3.7013,-3.6995,-3.7018,-3.704,-3.7073,-3.711,-3.7138,-3.7203,-3.7203,-3.7236,-3.7224,-3.7286,-3.7229,-3.7235,-3.7228,-3.7226,-3.7231,-3.7298,-3.73,-3.7301,-3.7303,0,-3.7011,-3.7005,-3.7036,-3.7067,-3.7093,-3.7116,-3.7136,-3.7157,-3.714,-3.7168,-3.7208,-3.723,-3.7274,-3.7312,-3.7342,-3.7349,-3.7324,-3.732,-3.7335,-3.7343,-3.7347,-3.7348,-3.7158,-3.7317,-3.7315,-3.7314,-3.7314,-3.7313,-3.7118,-3.7154,-3.7169,-3.7206,-3.7219,-3.7239,-3.7273,-3.7273,-3.7306,-3.734,-3.7327,-3.7374,-3.7389,-3.7427,-3.7438,-3.7475,-3.7451,-3.7472,-3.7478,-3.7484,-3.7492,-3.734,-3.748,-3.7479,-3.7479,-3.7478,-3.7478,0,-3.7262,-3.727,-3.7303,-3.7333,-3.7362,-3.7335,-3.7356,-3.7382,-3.7423,-3.744,-3.7468,-3.7515,-3.7551,-3.7554,-3.7588,-3.7616,-3.7606,-3.7626,-3.7625,-3.7627,-3.7509,-3.7494,-3.7634,-3.7634,-3.7634,-3.7634,-3.7634,-3.7634,-3.7341,-3.7401,-3.7397,-3.7464,-3.7471,-3.7516,-3.7531,-3.7549,-3.7562,-3.7616,-3.7645,-3.7646,-3.7658,-3.7692,-3.7725,-3.7724,-3.7739,-3.7765,-3.776,-3.7651,-3.7635,-3.7621,-3.7606,-3.7767,-3.7768,-3.7875,-3.7876,-3.7877]},{"header":{"parameterUnit":"m.s-1","parameterCategory":1,"la1":30.2991,"la2":30.254,"lo1":-89.0895,"lo2":-89.0444,"dy":0.0017,"dx":0.0017,"nx":28,"ny":28,"refTime":"2024-10-06T09:00:00:Z","depth":0,"parameterNumber":3,"parameterNumberName":"V-component_of_WINDS"},"data":[0,0,0,0,0,0,0,0,0,0,0,0,0,0,0,0,0,0,0,0,0,0,0,0,0,0,0,0,0,0,0,0,0,0,0,0,0,0,0,0,0,0,0,0,0,0,0,0,0,0,0,0,0,0,0,0,0,0,-5.2876,-5.2876,0,-5.2844,-5.2844,-5.2843,-5.2742,-5.274,-5.2737,-5.2735,-5.2704,-5.2706,-5.2707,0,0,0,0,0,0,0,0,0,0,0,0,0,-5.2854,-5.2855,-5.2876,-5.2876,-5.2876,-5.2844,-5.2843,-5.2843,-5.2742,-5.2739,-5.2737,-5.2734,-5.2704,-5.2705,-5.2707,0,0,0,0,0,0,0,0,0,0,0,0,0,-5.2847,-5.2855,-5.2877,-5.2821,-5.2816,-5.2844,-5.2843,-5.2843,-5.2743,-5.2739,-5.2736,-5.2733,-5.2703,-5.2705,-5.2707,-5.2787,0,0,-5.2713,-5.2714,0,0,0,0,0,0,0,0,-5.2847,-5.2848,-5.283,-5.2825,-5.2819,-5.2793,-5.2824,-5.2824,-5.2744,-5.2771,-5.2735,-5.2731,-5.2737,-5.2736,-5.2737,-5.2785,-5.2784,-5.2713,-5.2714,-5.2715,-5.2716,0,0,0,0,0,0,0,-5.2848,-5.2849,-5.2864,-5.283,-5.2823,-5.2799,-5.2794,-5.2824,-5.2773,-5.2768,-5.2761,-5.2758,-5.2733,-5.2736,-5.2736,-5.2783,-5.2713,-5.2715,-5.2716,-5.2717,-5.2895,-5.2899,0,0,0,0,0,0,-5.2856,-5.285,-5.2865,-5.2863,-5.2825,-5.2802,-5.2797,-5.2805,-5.2773,-5.2764,-5.2761,-5.2753,-5.2734,-5.2734,-5.2734,-5.2825,-5.2715,-5.2717,-5.2718,-5.2892,-5.2896,-5.29,0,0,0,0,0,0,-5.2856,-5.2858,-5.2866,-5.2854,-5.2853,-5.2806,-5.2816,-5.2806,-5.2808,-5.2767,-5.2758,-5.2772,-5.2731,-5.2732,-5.2774,-5.2823,-5.2718,-5.272,-5.2888,-5.2893,-5.2898,-5.3008,0,0,0,0,0,0,-5.2856,-5.2859,-5.2888,-5.2855,-5.2854,-5.2906,-5.2819,-5.2808,-5.2812,-5.2802,-5.2775,-5.2768,-5.2729,-5.2772,-5.2776,-5.2824,-5.2721,-5.2883,-5.289,-5.2896,-5.3,-5.3017,-5.3031,0,0,0,0,0,-5.2855,-5.2921,-5.289,-5.2892,-5.2889,-5.2909,-5.2908,-5.2861,-5.2816,-5.2845,-5.2819,-5.2769,-5.2817,-5.2777,-5.2781,-5.283,-5.288,-5.2888,-5.2896,-5.2993,-5.3013,-5.3031,0,0,0,0,0,0,-5.2961,-5.2915,-5.2881,-5.2937,-5.2928,-5.2892,-5.2927,-5.2884,-5.2888,-5.2878,-5.282,-5.2815,-5.2867,-5.2852,-5.2809,-5.2905,-5.284,-5.2849,-5.2913,-5.2932,-5.2947,-5.2949,-5.2723,0,0,0,0,0,-5.299,-5.3009,-5.2969,-5.3023,-5.302,-5.2975,-5.2981,-5.2946,-5.2934,-5.293,-5.2906,-5.2897,-5.291,-5.292,-5.293,-5.2997,-5.2991,-5.3033,-5.3048,-5.3061,-5.307,-5.3106,-5.3124,-5.2927,-5.2927,-5.2926,0,0,-5.3052,-5.303,-5.3045,-5.3044,-5.3032,-5.3054,-5.2972,-5.2998,-5.3014,-5.2934,-5.2972,-5.2955,-5.2941,-5.2997,-5.3021,-5.2987,-5.3123,-5.3072,-5.3082,-5.3084,-5.3116,-5.3135,-5.3151,-5.2932,-5.2931,-5.293,0,0,-5.3176,-5.3161,-5.3204,-5.3194,-5.3177,-5.3147,-5.3158,-5.3128,-5.3113,-5.3151,-5.3092,-5.311,-5.3133,-5.3126,-5.3126,-5.3247,-5.3202,-5.3252,-5.3333,-5.3368,-5.3384,-5.3397,-5.3441,-5.3458,-5.3261,-5.3261,-5.3262,0,-5.3256,-5.3285,-5.3232,-5.3262,-5.3264,-5.3191,-5.3236,-5.3229,-5.3216,-5.3219,-5.3182,-5.321,-5.3195,-5.3249,-5.3278,-5.328,-5.3291,-5.3255,-5.3386,-5.3399,-5.3411,-5.3452,-5.3469,-5.3268,-5.3267,-5.3266,-5.3266,0,-5.3383,-5.3405,-5.3442,-5.3431,-5.3437,-5.3474,-5.3428,-5.344,-5.3404,-5.3378,-5.3418,-5.3398,-5.3403,-5.3413,-5.3379,-5.3462,-5.3442,-5.3396,-5.3329,-5.3437,-5.3475,-5.349,-5.3277,-5.3274,-5.3273,-5.3271,0,0,-5.3573,-5.3532,-5.3547,-5.3541,-5.3518,-5.3534,-5.3568,-5.3572,-5.3583,-5.3578,-5.3605,-5.3627,-5.3585,-5.3584,-5.3548,-5.3579,-5.3678,-5.353,-5.3528,-5.3558,-5.3769,-5.3804,-5.3823,-5.3647,-5.365,-5.3652,-5.3771,0,-5.3691,-5.3746,-5.37,-5.3764,-5.3783,-5.3715,-5.3745,-5.3735,-5.3711,-5.3725,-5.37,-5.3716,-5.3659,-5.3658,-5.3686,-5.366,-5.372,-5.3651,-5.3674,-5.3675,-5.368,-5.3843,-5.388,-5.3992,-5.3785,-5.3787,-5.3789,0,-5.3835,-5.3835,-5.3901,-5.3873,-5.388,-5.3907,-5.3907,-5.3921,-5.3908,-5.3889,-5.3889,-5.3845,-5.3878,-5.3812,-5.3857,-5.3811,-5.3818,-5.3807,-5.381,-5.3811,-5.3739,-5.3849,-5.4027,-5.4044,-5.3812,-5.381,-5.3808,0,-5.3967,-5.3984,-5.4025,-5.4023,-5.3991,-5.4012,-5.4,-5.3984,-5.3989,-5.3989,-5.3993,-5.3997,-5.4,-5.4005,-5.3964,-5.392,-5.4014,-5.3945,-5.4,-5.4002,-5.4023,-5.4023,-5.4206,-5.4028,-5.4027,-5.4027,-5.4027,0,-5.4104,-5.4147,-5.4084,-5.411,-5.4157,-5.4104,-5.4152,-5.4133,-5.4119,-5.4141,-5.4082,-5.4104,-5.4048,-5.4064,-5.4032,-5.4075,-5.4076,-5.4063,-5.4054,-5.4068,-5.407,-5.4072,-5.4063,-5.4031,-5.403,-5.403,-5.4029,0,-5.4259,-5.4219,-5.426,-5.4227,-5.4219,-5.4255,-5.4227,-5.425,-5.4223,-5.4251,-5.4255,-5.4213,-5.4229,-5.4188,-5.4199,-5.4177,-5.4238,-5.4217,-5.4243,-5.4236,-5.4294,-5.4289,-5.4485,-5.4508,-5.4315,-5.4317,-5.4318,0,-5.4349,-5.4381,-5.4351,-5.436,-5.4351,-5.4368,-5.4373,-5.4323,-5.433,-5.4318,-5.4343,-5.4354,-5.436,-5.439,-5.4361,-5.4368,-5.4347,-5.4415,-5.4348,-5.4361,-5.4349,-5.4347,-5.4351,-5.4429,-5.4431,-5.4433,-5.4435,0,-5.4513,-5.4491,-5.45,-5.4503,-5.451,-5.451,-5.4506,-5.4518,-5.4464,-5.4476,-5.4491,-5.4496,-5.4506,-5.4518,-5.452,-5.4508,-5.4464,-5.4456,-5.4469,-5.4485,-5.4499,-5.4492,-5.4281,-5.4452,-5.445,-5.4449,-5.4448,-5.4447,-5.4639,-5.4664,-5.4646,-5.4659,-5.465,-5.4647,-5.4667,-5.4643,-5.4654,-5.4658,-5.4628,-5.465,-5.4637,-5.4634,-5.4627,-5.4644,-5.4613,-5.4632,-5.4637,-5.4643,-5.4653,-5.4496,-5.4644,-5.4644,-5.4643,-5.4643,-5.4642,0,-5.48,-5.4785,-5.4797,-5.4793,-5.4803,-5.4758,-5.4751,-5.4763,-5.4783,-5.4774,-5.4781,-5.4799,-5.4811,-5.4783,-5.4791,-5.481,-5.479,-5.4814,-5.4812,-5.481,-5.468,-5.4668,-5.483,-5.483,-5.483,-5.483,-5.483,-5.483,-5.4885,-5.4925,-5.4902,-5.4938,-5.4923,-5.4943,-5.4943,-5.4941,-5.4933,-5.4956,-5.4965,-5.4947,-5.493,-5.4936,-5.4945,-5.4937,-5.4943,-5.4974,-5.4959,-5.4838,-5.4819,-5.4802,-5.479,-5.4976,-5.4976,-5.5088,-5.5089,-5.509]}]]